SHU5840 UHSS-UHHH

Flight info

Callsign SHU5840
Flight time 1h 10m
Altitude 36000
Route KENOM3V KENOM A969 MOGIS B150 NEBES NEBES6F
Aircraft A319/M-SDE3FGHIRWY/LB1

Departure

Time 2026-05-06 21:04
Airport Yuzhno-Sakhalinsk International Airport (UHSS)

Arrival

Time 2026-05-06 22:14
Airport Khabarovsk Novy Airport (UHHH)
Time Latitude Longitude Altitude Speed Heading
2026-05-06 20:33 46.88884 142.72232 63 ft 0 kts 91°
2026-05-06 20:46 46.88884 142.72221 62 ft 2 kts 91°
2026-05-06 20:46 46.88884 142.72198 61 ft 2 kts 91°
2026-05-06 20:46 46.88884 142.72177 60 ft 2 kts 91°
2026-05-06 20:46 46.88884 142.72156 59 ft 2 kts 91°
2026-05-06 20:47 46.88885 142.72133 59 ft 2 kts 109°
2026-05-06 20:47 46.88892 142.72115 58 ft 2 kts 135°
2026-05-06 20:47 46.88905 142.72102 58 ft 2 kts 162°
2026-05-06 20:47 46.88914 142.72099 58 ft 0 kts 179°
2026-05-06 20:48 46.88921 142.72101 58 ft 0 kts 181°
2026-05-06 20:49 46.88889 142.72099 58 ft 6 kts 181°
2026-05-06 20:50 46.88832 142.72098 58 ft 10 kts 181°
2026-05-06 20:50 46.88754 142.72096 58 ft 11 kts 181°
2026-05-06 20:50 46.88668 142.72093 58 ft 13 kts 182°
2026-05-06 20:50 46.88570 142.72092 58 ft 14 kts 180°
2026-05-06 20:51 46.88465 142.72090 58 ft 15 kts 181°
2026-05-06 20:51 46.88357 142.72087 58 ft 15 kts 181°
2026-05-06 20:51 46.88244 142.72084 58 ft 16 kts 180°
2026-05-06 20:51 46.88133 142.72081 58 ft 13 kts 181°
2026-05-06 20:52 46.88047 142.72078 57 ft 11 kts 181°
2026-05-06 20:52 46.87990 142.72008 53 ft 13 kts 246°
2026-05-06 20:52 46.87968 142.71922 51 ft 0 kts 249°
2026-05-06 20:52 46.87962 142.71898 51 ft 4 kts 249°
2026-05-06 20:53 46.87946 142.71840 50 ft 7 kts 249°
2026-05-06 20:53 46.87947 142.71751 48 ft 10 kts 309°
2026-05-06 20:53 46.88010 142.71729 48 ft 0 kts
2026-05-06 20:54 46.88043 142.71729 47 ft 26 kts
2026-05-06 20:54 46.88433 142.71738 49 ft 56 kts
2026-05-06 20:54 46.88662 142.71745 49 ft 15 kts
2026-05-06 20:55 46.88701 142.71834 53 ft 9 kts 94°
2026-05-06 20:55 46.88696 142.71928 55 ft 9 kts 94°
2026-05-06 20:55 46.88696 142.72017 57 ft 8 kts 90°
2026-05-06 20:55 46.88676 142.72087 58 ft 7 kts 149°
2026-05-06 20:56 46.88649 142.72095 58 ft 0 kts 183°
2026-05-06 20:57 46.88648 142.72095 58 ft 0 kts 183°
2026-05-06 20:58 46.88611 142.72093 58 ft 12 kts 181°
2026-05-06 20:58 46.88509 142.72092 58 ft 18 kts 181°
2026-05-06 20:58 46.88370 142.72087 58 ft 20 kts 182°
2026-05-06 20:58 46.88228 142.72084 58 ft 20 kts 181°
2026-05-06 20:59 46.88087 142.72080 58 ft 20 kts 181°
2026-05-06 20:59 46.87994 142.72020 54 ft 16 kts 244°
2026-05-06 20:59 46.87951 142.71851 50 ft 17 kts 250°
2026-05-06 20:59 46.87945 142.71748 48 ft 11 kts 309°
2026-05-06 21:00 46.88044 142.71729 47 ft 22 kts
2026-05-06 21:00 46.88248 142.71735 47 ft 35 kts
2026-05-06 21:00 46.88524 142.71742 49 ft 42 kts
2026-05-06 21:00 46.88811 142.71748 49 ft 40 kts
2026-05-06 21:01 46.89084 142.71755 48 ft 38 kts
2026-05-06 21:01 46.89350 142.71762 48 ft 37 kts
2026-05-06 21:01 46.89542 142.71785 47 ft 15 kts 33°
2026-05-06 21:01 46.89599 142.71797 46 ft 9 kts 286°
2026-05-06 21:02 46.89552 142.71765 46 ft 9 kts 175°
2026-05-06 21:02 46.89523 142.71765 47 ft 0 kts 182°
2026-05-06 21:03 46.89520 142.71765 47 ft 3 kts 182°
2026-05-06 21:03 46.89284 142.71761 48 ft 71 kts 181°
2026-05-06 21:03 46.88553 142.71744 50 ft 135 kts 180°
2026-05-06 21:03 46.87482 142.71727 333 ft 162 kts 182°
2026-05-06 21:04 46.86365 142.71635 940 ft 164 kts 203°
2026-05-06 21:04 46.85452 142.70683 1630 ft 165 kts 224°
2026-05-06 21:04 46.84587 142.69563 2263 ft 174 kts 220°
2026-05-06 21:04 46.83597 142.68457 2767 ft 191 kts 218°
2026-05-06 21:05 46.82460 142.67246 3214 ft 214 kts 218°
2026-05-06 21:05 46.81198 142.65938 3797 ft 232 kts 217°
2026-05-06 21:05 46.79821 142.64528 4382 ft 249 kts 218°
2026-05-06 21:05 46.78387 142.63069 5103 ft 260 kts 217°
2026-05-06 21:06 46.76909 142.61569 5978 ft 264 kts 218°
2026-05-06 21:06 46.75399 142.60043 6872 ft 267 kts 218°
2026-05-06 21:06 46.73883 142.58513 7755 ft 269 kts 219°
2026-05-06 21:06 46.72349 142.56966 8705 ft 269 kts 219°
2026-05-06 21:07 46.70832 142.55434 9631 ft 269 kts 220°
2026-05-06 21:07 46.69312 142.53897 10463 ft 271 kts 220°
2026-05-06 21:07 46.67717 142.52275 10912 ft 287 kts 220°
2026-05-06 21:07 46.66047 142.50581 11288 ft 304 kts 220°
2026-05-06 21:08 46.64410 142.48614 11854 ft 307 kts 233°
2026-05-06 21:08 46.63335 142.46008 12694 ft 301 kts 251°
2026-05-06 21:08 46.62917 142.43043 13323 ft 301 kts 267°
2026-05-06 21:08 46.63203 142.40039 13683 ft 306 kts 283°
2026-05-06 21:09 46.64086 142.37212 13781 ft 317 kts 291°
2026-05-06 21:09 46.65094 142.34326 13787 ft 320 kts 290°
2026-05-06 21:09 46.66104 142.31453 13789 ft 321 kts 291°
2026-05-06 21:09 46.67126 142.28560 13780 ft 321 kts 291°
2026-05-06 21:10 46.68148 142.25668 13780 ft 322 kts 291°
2026-05-06 21:10 46.69167 142.22795 13779 ft 323 kts 291°
2026-05-06 21:10 46.70195 142.19900 13786 ft 323 kts 291°
2026-05-06 21:10 46.71235 142.16974 13787 ft 323 kts 291°
2026-05-06 21:11 46.72261 142.14079 13790 ft 323 kts 291°
2026-05-06 21:11 46.73290 142.11174 13791 ft 323 kts 291°
2026-05-06 21:11 46.74319 142.08272 13792 ft 324 kts 291°
2026-05-06 21:11 46.75354 142.05351 13793 ft 324 kts 291°
2026-05-06 21:12 46.76379 142.02446 13798 ft 325 kts 291°
2026-05-06 21:12 46.77408 141.99535 13792 ft 325 kts 291°
2026-05-06 21:12 46.78448 141.96588 13789 ft 325 kts 291°
2026-05-06 21:12 46.79478 141.93665 13793 ft 327 kts 291°
2026-05-06 21:13 46.80520 141.90700 13797 ft 333 kts 292°
2026-05-06 21:13 46.81601 141.87608 13803 ft 356 kts 292°
2026-05-06 21:13 46.82737 141.84366 13799 ft 368 kts 292°
2026-05-06 21:13 46.83943 141.80930 13808 ft 385 kts 293°
2026-05-06 21:14 46.85247 141.77449 13927 ft 396 kts 295°
2026-05-06 21:14 46.86595 141.73926 14502 ft 398 kts 295°
2026-05-06 21:14 46.87916 141.70500 15416 ft 390 kts 294°
2026-05-06 21:14 46.89220 141.67123 16393 ft 380 kts 294°
2026-05-06 21:15 46.90498 141.63798 17184 ft 375 kts 293°
2026-05-06 21:15 46.91766 141.60486 17869 ft 373 kts 292°
2026-05-06 21:15 46.93008 141.57230 18546 ft 370 kts 291°
2026-05-06 21:15 46.94245 141.53984 19280 ft 365 kts 291°
2026-05-06 21:16 46.95471 141.50761 20017 ft 359 kts 291°
2026-05-06 21:16 46.96672 141.47597 20756 ft 354 kts 291°
2026-05-06 21:16 46.97850 141.44490 21475 ft 348 kts 290°
2026-05-06 21:16 46.99000 141.41454 22173 ft 343 kts 291°
2026-05-06 21:17 47.00148 141.38425 22837 ft 338 kts 290°
2026-05-06 21:17 47.01288 141.35394 23057 ft 346 kts 290°
2026-05-06 21:17 47.02442 141.32303 23226 ft 355 kts 290°
2026-05-06 21:17 47.03638 141.29102 23374 ft 364 kts 290°
2026-05-06 21:18 47.04870 141.25813 23536 ft 373 kts 290°
2026-05-06 21:18 47.06131 141.22453 23671 ft 380 kts 290°
2026-05-06 21:18 47.07413 141.19038 23815 ft 387 kts 290°
2026-05-06 21:18 47.08724 141.15544 23932 ft 394 kts 290°
2026-05-06 21:19 47.10055 141.11992 24049 ft 400 kts 290°
2026-05-06 21:19 47.11404 141.08426 24148 ft 405 kts 291°
2026-05-06 21:19 47.12765 141.04831 24224 ft 409 kts 291°
2026-05-06 21:19 47.14142 141.01178 24303 ft 412 kts 291°
2026-05-06 21:20 47.15537 140.97459 24377 ft 415 kts 291°
2026-05-06 21:20 47.16916 140.93777 24414 ft 417 kts 291°
2026-05-06 21:20 47.18318 140.90016 24552 ft 417 kts 291°
2026-05-06 21:20 47.19703 140.86305 24674 ft 417 kts 291°
2026-05-06 21:21 47.21093 140.82564 24805 ft 417 kts 291°
2026-05-06 21:21 47.22472 140.78851 24929 ft 417 kts 290°
2026-05-06 21:21 47.23845 140.75136 25088 ft 416 kts 290°
2026-05-06 21:21 47.25229 140.71393 25241 ft 416 kts 290°
2026-05-06 21:22 47.26590 140.67699 25400 ft 415 kts 290°
2026-05-06 21:22 47.27963 140.63976 25580 ft 414 kts 290°
2026-05-06 21:22 47.29330 140.60259 25735 ft 413 kts 290°
2026-05-06 21:22 47.30693 140.56547 25894 ft 413 kts 290°
2026-05-06 21:23 47.32064 140.52808 26085 ft 411 kts 290°
2026-05-06 21:23 47.33405 140.49150 26254 ft 410 kts 290°
2026-05-06 21:23 47.34763 140.45435 26398 ft 410 kts 290°
2026-05-06 21:23 47.36096 140.41775 26534 ft 410 kts 290°
2026-05-06 21:24 47.37441 140.38097 26718 ft 410 kts 290°
2026-05-06 21:24 47.38796 140.34404 26914 ft 409 kts 289°
2026-05-06 21:24 47.40140 140.30724 27151 ft 407 kts 289°
2026-05-06 21:24 47.41474 140.27084 27737 ft 398 kts 289°
2026-05-06 21:25 47.42757 140.23581 28422 ft 388 kts 289°
2026-05-06 21:25 47.44027 140.20105 28897 ft 383 kts 289°
2026-05-06 21:25 47.45268 140.16687 29203 ft 383 kts 289°
2026-05-06 21:25 47.46518 140.13238 29520 ft 382 kts 289°
2026-05-06 21:26 47.47776 140.09766 29895 ft 379 kts 289°
2026-05-06 21:26 47.49017 140.06351 30297 ft 376 kts 288°
2026-05-06 21:26 47.50245 140.02962 30617 ft 376 kts 289°
2026-05-06 21:26 47.51467 139.99573 30918 ft 375 kts 289°
2026-05-06 21:27 47.52675 139.96225 31266 ft 373 kts 289°
2026-05-06 21:27 47.53896 139.92847 31597 ft 371 kts 289°
2026-05-06 21:27 47.55097 139.89517 31888 ft 370 kts 289°
2026-05-06 21:27 47.56311 139.86150 32121 ft 371 kts 289°
2026-05-06 21:28 47.57518 139.82787 32345 ft 372 kts 289°
2026-05-06 21:28 47.58727 139.79423 32627 ft 370 kts 289°
2026-05-06 21:28 47.59925 139.76085 32909 ft 369 kts 289°
2026-05-06 21:28 47.61132 139.72714 33156 ft 369 kts 289°
2026-05-06 21:29 47.62333 139.69363 33436 ft 367 kts 289°
2026-05-06 21:29 47.63515 139.66051 33696 ft 366 kts 289°
2026-05-06 21:29 47.64703 139.62727 33934 ft 366 kts 290°
2026-05-06 21:29 47.65897 139.59390 34118 ft 366 kts 290°
2026-05-06 21:30 47.67079 139.56059 34282 ft 367 kts 290°
2026-05-06 21:30 47.68252 139.52760 34452 ft 366 kts 290°
2026-05-06 21:30 47.69435 139.49429 34611 ft 365 kts 290°
2026-05-06 21:30 47.70624 139.46072 34718 ft 366 kts 290°
2026-05-06 21:31 47.71799 139.42755 34815 ft 367 kts 290°
2026-05-06 21:31 47.72987 139.39407 34917 ft 368 kts 289°
2026-05-06 21:31 47.74165 139.36070 34996 ft 369 kts 289°
2026-05-06 21:31 47.75364 139.32669 35097 ft 370 kts 289°
2026-05-06 21:32 47.76542 139.29309 35219 ft 371 kts 289°
2026-05-06 21:32 47.78800 139.22466 35470 ft 370 kts 288°
2026-05-06 21:32 47.79906 139.19052 35560 ft 371 kts 288°
2026-05-06 21:33 47.82156 139.12080 35727 ft 374 kts 288°
2026-05-06 21:33 47.84395 139.05164 35758 ft 376 kts 288°
2026-05-06 21:34 47.86647 138.98186 35777 ft 373 kts 288°
2026-05-06 21:34 47.88893 138.91229 35902 ft 372 kts 288°
2026-05-06 21:35 47.91131 138.84277 35790 ft 371 kts 288°
2026-05-06 21:35 47.93332 138.77416 35762 ft 369 kts 288°
2026-05-06 21:36 47.95549 138.70502 35735 ft 371 kts 287°
2026-05-06 21:36 47.97761 138.63570 35736 ft 372 kts 288°
2026-05-06 21:37 47.99965 138.56648 35745 ft 371 kts 288°
2026-05-06 21:37 48.02168 138.49716 35743 ft 375 kts 288°
2026-05-06 21:38 48.04404 138.42615 35724 ft 381 kts 287°
2026-05-06 21:38 48.06370 138.35278 35754 ft 379 kts 283°
2026-05-06 21:39 48.07883 138.27834 35751 ft 378 kts 278°
2026-05-06 21:39 48.09119 138.20201 35767 ft 379 kts 278°
2026-05-06 21:40 48.10335 138.12587 35746 ft 378 kts 278°
2026-05-06 21:40 48.11579 138.04932 35779 ft 381 kts 277°
2026-05-06 21:41 48.12803 137.97243 35741 ft 382 kts 278°
2026-05-06 21:41 48.14017 137.89514 35758 ft 381 kts 278°
2026-05-06 21:42 48.15224 137.81795 35750 ft 384 kts 278°
2026-05-06 21:42 48.15823 137.77928 35644 ft 385 kts 278°
2026-05-06 21:42 48.16423 137.74072 35455 ft 382 kts 277°
2026-05-06 21:43 48.17021 137.70175 35230 ft 380 kts 278°
2026-05-06 21:43 48.17607 137.66363 35015 ft 380 kts 278°
2026-05-06 21:43 48.18199 137.62521 34611 ft 379 kts 277°
2026-05-06 21:43 48.18784 137.58714 34186 ft 375 kts 277°
2026-05-06 21:44 48.19366 137.54918 33476 ft 376 kts 277°
2026-05-06 21:44 48.19939 137.51150 32840 ft 372 kts 276°
2026-05-06 21:44 48.20509 137.47409 32066 ft 371 kts 276°
2026-05-06 21:44 48.21076 137.43655 31318 ft 368 kts 275°
2026-05-06 21:45 48.21629 137.39975 30513 ft 367 kts 276°
2026-05-06 21:45 48.22189 137.36244 29655 ft 367 kts 276°
2026-05-06 21:45 48.22738 137.32567 28734 ft 368 kts 275°
2026-05-06 21:45 48.23292 137.28834 27844 ft 368 kts 275°
2026-05-06 21:46 48.23853 137.25099 27015 ft 369 kts 276°
2026-05-06 21:46 48.24403 137.21385 26164 ft 369 kts 276°
2026-05-06 21:46 48.24957 137.17673 25299 ft 370 kts 276°
2026-05-06 21:46 48.25520 137.13942 24686 ft 363 kts 276°
2026-05-06 21:47 48.26068 137.10283 24216 ft 356 kts 277°
2026-05-06 21:47 48.26597 137.06706 23723 ft 351 kts 278°
2026-05-06 21:47 48.27117 137.03198 23267 ft 346 kts 278°
2026-05-06 21:47 48.27636 136.99710 22772 ft 342 kts 278°
2026-05-06 21:48 48.28148 136.96228 22307 ft 339 kts 278°
2026-05-06 21:48 48.28650 136.92831 21878 ft 336 kts 278°
2026-05-06 21:48 48.29145 136.89453 21438 ft 333 kts 279°
2026-05-06 21:48 48.29625 136.86173 21001 ft 331 kts 279°
2026-05-06 21:49 48.30129 136.82823 20574 ft 330 kts 281°
2026-05-06 21:49 48.30790 136.79506 20155 ft 332 kts 285°
2026-05-06 21:49 48.31638 136.76292 19755 ft 333 kts 290°
2026-05-06 21:49 48.32678 136.73160 19356 ft 335 kts 295°
2026-05-06 21:50 48.33830 136.70143 18970 ft 335 kts 297°
2026-05-06 21:50 48.35007 136.67127 18588 ft 334 kts 297°
2026-05-06 21:50 48.36171 136.64140 18227 ft 334 kts 297°
2026-05-06 21:50 48.37342 136.61136 17863 ft 338 kts 297°
2026-05-06 21:51 48.38552 136.58019 17485 ft 351 kts 298°
2026-05-06 21:51 48.39784 136.54846 17110 ft 353 kts 298°
2026-05-06 21:51 48.41014 136.51680 16703 ft 351 kts 298°
2026-05-06 21:51 48.42233 136.48537 16263 ft 349 kts 298°
2026-05-06 21:52 48.43444 136.45412 15788 ft 346 kts 299°
2026-05-06 21:52 48.44656 136.42281 15303 ft 344 kts 299°
2026-05-06 21:52 48.45851 136.39191 14848 ft 341 kts 299°
2026-05-06 21:52 48.47036 136.36116 14376 ft 340 kts 299°
2026-05-06 21:53 48.48209 136.33067 13879 ft 339 kts 298°
2026-05-06 21:53 48.49377 136.30019 13407 ft 337 kts 298°
2026-05-06 21:53 48.50548 136.26970 12975 ft 334 kts 299°
2026-05-06 21:53 48.51694 136.23981 12525 ft 331 kts 298°
2026-05-06 21:54 48.52853 136.20955 12066 ft 329 kts 298°
2026-05-06 21:54 48.53983 136.18001 11610 ft 327 kts 299°
2026-05-06 21:54 48.55116 136.15039 11153 ft 324 kts 299°
2026-05-06 21:54 48.56226 136.12137 10706 ft 322 kts 298°
2026-05-06 21:55 48.57345 136.09204 10265 ft 319 kts 298°
2026-05-06 21:55 48.58420 136.06389 10158 ft 304 kts 298°
2026-05-06 21:55 48.59450 136.03688 10068 ft 290 kts 298°
2026-05-06 21:55 48.60430 136.01112 9971 ft 276 kts 298°
2026-05-06 21:56 48.61360 135.98671 9896 ft 263 kts 298°
2026-05-06 21:56 48.62241 135.96352 9831 ft 251 kts 298°
2026-05-06 21:56 48.63104 135.94073 9558 ft 248 kts 298°
2026-05-06 21:56 48.63954 135.91830 9254 ft 246 kts 298°
2026-05-06 21:57 48.64797 135.89604 9028 ft 240 kts 298°
2026-05-06 21:57 48.65597 135.87491 9011 ft 226 kts 298°
2026-05-06 21:57 48.66378 135.85504 8973 ft 218 kts 306°
2026-05-06 21:57 48.67566 135.84073 8889 ft 224 kts 335°
2026-05-06 21:58 48.69100 135.83707 8609 ft 229 kts 356°
2026-05-06 21:58 48.70698 135.83778 8353 ft 230 kts 357°
2026-05-06 21:58 48.72295 135.83852 8102 ft 230 kts 357°
2026-05-06 21:58 48.73891 135.83914 7859 ft 229 kts 357°
2026-05-06 21:59 48.75496 135.83966 7614 ft 228 kts 357°
2026-05-06 21:59 48.77071 135.84015 7377 ft 228 kts 356°
2026-05-06 21:59 48.78656 135.84062 7137 ft 227 kts 357°
2026-05-06 21:59 48.80223 135.84106 6995 ft 226 kts 357°
2026-05-06 22:00 48.81799 135.84090 6984 ft 224 kts 348°
2026-05-06 22:00 48.83258 135.83437 6983 ft 218 kts 329°
2026-05-06 22:00 48.84567 135.82321 6990 ft 218 kts 326°
2026-05-06 22:00 48.85874 135.81122 6994 ft 219 kts 325°
2026-05-06 22:01 48.87165 135.79938 6996 ft 219 kts 326°
2026-05-06 22:01 48.88485 135.78743 6997 ft 220 kts 326°
2026-05-06 22:01 48.89804 135.77559 7000 ft 219 kts 326°
2026-05-06 22:01 48.91097 135.76382 7001 ft 218 kts 322°
2026-05-06 22:02 48.92216 135.74850 6998 ft 214 kts 306°
2026-05-06 22:02 48.93055 135.73027 6996 ft 213 kts 301°
2026-05-06 22:02 48.93853 135.71132 6997 ft 212 kts 301°
2026-05-06 22:02 48.94649 135.69232 7002 ft 212 kts 301°
2026-05-06 22:03 48.95422 135.67328 6949 ft 212 kts 294°
2026-05-06 22:03 48.95599 135.65170 6788 ft 209 kts 255°
2026-05-06 22:03 48.94894 135.63258 6657 ft 213 kts 227°
2026-05-06 22:03 48.93637 135.62035 6535 ft 220 kts 207°
2026-05-06 22:04 48.92211 135.61173 6409 ft 221 kts 205°
2026-05-06 22:04 48.90786 135.60321 6280 ft 221 kts 205°
2026-05-06 22:04 48.89364 135.59454 6149 ft 220 kts 206°
2026-05-06 22:04 48.87943 135.58571 6021 ft 220 kts 206°
2026-05-06 22:05 48.86525 135.57680 5884 ft 221 kts 206°
2026-05-06 22:05 48.85107 135.56781 5688 ft 220 kts 206°
2026-05-06 22:05 48.83695 135.55885 5518 ft 220 kts 206°
2026-05-06 22:05 48.82292 135.54997 5499 ft 220 kts 207°
2026-05-06 22:06 48.80877 135.54102 5494 ft 220 kts 207°
2026-05-06 22:06 48.79465 135.53209 5494 ft 220 kts 207°
2026-05-06 22:06 48.78040 135.52306 5495 ft 220 kts 207°
2026-05-06 22:06 48.76638 135.51405 5493 ft 220 kts 210°
2026-05-06 22:07 48.75370 135.50153 5426 ft 216 kts 224°
2026-05-06 22:07 48.74248 135.48636 5184 ft 214 kts 226°
2026-05-06 22:07 48.73167 135.47110 4900 ft 215 kts 226°
2026-05-06 22:07 48.72092 135.45560 4693 ft 211 kts 227°
2026-05-06 22:08 48.71048 135.44038 4478 ft 207 kts 227°
2026-05-06 22:08 48.70005 135.42554 4263 ft 204 kts 226°
2026-05-06 22:08 48.68980 135.41126 4053 ft 200 kts 226°
2026-05-06 22:08 48.67955 135.39719 3856 ft 196 kts 226°
2026-05-06 22:09 48.66949 135.38347 3644 ft 193 kts 225°
2026-05-06 22:09 48.65955 135.36998 3400 ft 192 kts 225°
2026-05-06 22:09 48.64967 135.35657 3149 ft 191 kts 226°
2026-05-06 22:09 48.63982 135.34317 2903 ft 191 kts 225°
2026-05-06 22:10 48.63000 135.32976 2662 ft 190 kts 225°
2026-05-06 22:10 48.62027 135.31648 2423 ft 189 kts 225°
2026-05-06 22:10 48.61056 135.30330 2224 ft 186 kts 225°
2026-05-06 22:10 48.60113 135.29053 2299 ft 172 kts 225°
2026-05-06 22:11 48.59286 135.27936 2211 ft 149 kts 226°
2026-05-06 22:11 48.58563 135.26956 2167 ft 132 kts 226°
2026-05-06 22:11 48.57883 135.26025 2077 ft 136 kts 226°
2026-05-06 22:11 48.57155 135.25035 1492 ft 149 kts 225°
2026-05-06 22:12 48.56389 135.24000 1065 ft 148 kts 226°
2026-05-06 22:12 48.55644 135.22942 671 ft 145 kts 224°
2026-05-06 22:12 48.54913 135.21973 410 ft 133 kts 224°
2026-05-06 22:12 48.54257 135.21077 295 ft 125 kts 224°
2026-05-06 22:13 48.53626 135.20209 237 ft 113 kts 223°
2026-05-06 22:13 48.53165 135.19586 242 ft 72 kts 220°
2026-05-06 22:13 48.52811 135.19101 244 ft 64 kts 222°
2026-05-06 22:13 48.52495 135.18672 239 ft 58 kts 222°
2026-05-06 22:14 48.52207 135.18275 240 ft 48 kts 223°
2026-05-06 22:14 48.52116 135.18068 244 ft 14 kts 316°
2026-05-06 22:14 48.52195 135.17944 248 ft 20 kts 311°
2026-05-06 22:14 48.52296 135.17772 253 ft 20 kts 310°
2026-05-06 22:15 48.52385 135.17622 259 ft 13 kts 314°
2026-05-06 22:15 48.52410 135.17563 261 ft 8 kts 277°
2026-05-06 22:15 48.52384 135.17473 262 ft 10 kts 249°
2026-05-06 22:15 48.52408 135.17383 265 ft 8 kts 313°
2026-05-06 22:16 48.52446 135.17313 267 ft 10 kts 289°
2026-05-06 22:16 48.52460 135.17198 265 ft 10 kts 328°
2026-05-06 22:16 48.52495 135.17163 266 ft 0 kts 309°